Location: Killam
(52.7910°N, 111.8608°W)
Time: 08:56:59
(UTC+00:00)

Tiros 1 - Visible Passes

Search period start: 16 February 2026 00:00
Search period end: 26 February 2026 00:00
Orbit: 618 x 649 km, 48.4° (Epoch: 14 February)

Date Brightness Start Highest point End Pass type
(mag) Time Alt. Az. Time Alt. Az. Time Alt. Az.
23 Feb 9.9 13:17:26 10° SSE 13:19:25 13° SE 13:21:24 10° ESE visible
24 Feb 9.4 13:37:08 10° SSW 13:40:35 21° SSE 13:44:00 10° E visible
25 Feb 9.9 12:20:04 10° SSE 12:21:00 11° SE 12:21:56 10° SE visible
